Location: *
(55.5817°S, 142.4781°W)
Time: 07:45:27
(UTC+00:00)

Cosmos 2173 Rocket - Pass Details

Date: 29 April 2025
Orbit: 945 x 998 km, 83.0° (Epoch: 23 May)

Event Time Altitude Azimuth Distance (km) Brightness Sun altitude
Exits shadow 14:03:48 49° 296° (WNW) 1,243 4.1 -23.8°
Maximum altitude 14:05:03 58° 253° (WSW) 1,132 4.0 -23.6°
Drops below altitude 10° 14:11:14 10° 173° (S) 2,731 6.5 -22.8°
Sets 14:13:48 0° 169° (SSE) 3,676 7.2 -22.4°
